Flag for Canada Weather past 2 weeks in Pictou County, Nova Scotia, Canada

Now
16 °F

Cold.


Feels Like: 0 °F
Forecast: N/A
Wind: 20 mph from Northwest

Location: Caribou Point

Current Time: Mar 5, 2015 at 7:00:06 PM

Latest Report: Mar 5, 2015 at 6:00 PM


Visibility: N/A

Pressure: 29.93 "Hg

Humidity: 59%

Dew point: 4 °F

Location of Pictou CountyLocation

Historic Weather in Pictou County — Graph

°F

Pictou County temperature yesterday

Maximum temperature yesterday: 37 °F (at 12:00 PM)
Minimum temperature yesterday: 10 °F (at 1:00 AM)
Average temperature yesterday: 26 °F

Past Weeks' High & Low Weather Summary

 TemperatureHumidityPressure
High41 °F (Feb 22, 11:00 AM)100% (Feb 19, 1:00 AM)30.63 "Hg (Feb 19, 1:00 AM)
Low-9 °F (Feb 24, 7:00 AM)41% (Feb 21, 5:00 PM)29.31 "Hg (Feb 25, 5:00 PM)
Average19 °F80%29.97 "Hg
* Reported Feb 18 5:00 PM — Mar 5 5:00 PM, Pictou County, Weather by CustomWeather, © 2015

Note: Actual official high and low records may vary slightly from our data, if they occured in-between our weather recording intervals... More about our weather records

Advertising

Pictou County weather history for previous 24 hours

 ConditionsComfort  
Time TempWeatherWind HumidityBarometerVisibility
5:00 PM
Thu, Mar 5
18 °FCold.16 mph65%29.90 "HgN/A
4:00 PM20 °FCold.24 mph60%29.87 "HgN/A
3:00 PM20 °FCold.23 mph63%29.84 "HgN/A
2:00 PM22 °FCold.21 mph60%29.82 "HgN/A
1:00 PM21 °FCold.21 mph64%29.84 "HgN/A
12:00 PM23 °FCold.20 mph63%29.83 "HgN/A
11:00 AM23 °FCold.24 mph78%29.80 "HgN/A
10:00 AM27 °FChilly.17 mph77%29.77 "HgN/A
9:00 AM27 °FChilly.15 mph81%29.75 "HgN/A
8:00 AM28 °FChilly.16 mph76%29.71 "HgN/A
7:00 AM31 °FChilly.7 mph63%29.68 "HgN/A
6:00 AM31 °FChilly.6 mph68%29.67 "HgN/A
5:00 AM31 °FChilly.12 mph74%29.68 "HgN/A
4:00 AM32 °FChilly.9 mph65%29.66 "HgN/A
3:00 AM31 °FChilly.5 mph79%29.62 "HgN/A
2:00 AM32 °FChilly.9 mph68%29.69 "HgN/A
1:00 AM31 °FChilly.5 mph84%29.65 "HgN/A
12:00 AM34 °FChilly.8 mph76%29.67 "HgN/A
11:00 PM
Wed, Mar 4
30 °FChilly.7 mph82%29.65 "HgN/A
10:00 PM32 °FChilly.8 mph80%29.62 "HgN/A
9:00 PM32 °FChilly.5 mph76%29.65 "HgN/A
8:00 PM32 °FChilly.6 mph80%29.64 "HgN/A
Weather by CustomWeather, © 2015

See weather overviewHow to use our weather pages